Davenport, OK

8:32 PM CDT on September 27, 2016 (GMT -0500)
Chandler Municipal

Weather History for KCQB - January, 2013

Change the Weather History Date:

Monday, January 28, 2013

  Actual Average (KCUH) Record (KCUH)
Temperature  
Mean Temperature 70 °F -  
Max Temperature 78 °F 47 °F 78 °F (2015)
Min Temperature 62 °F 24 °F 0 °F (1963)
Cooling Degree Days 5    
Growing Degree Days 20 (Base 50)    
Moisture  
Dew Point 65 °F    
Average Humidity 85    
Maximum Humidity 100    
Minimum Humidity 61    
Precipitation  
Precipitation 0.00 in - - ()
Sea Level Pressure  
Sea Level Pressure 29.84 in    
Wind  
Wind Speed 14 mph (South)    
Max Wind Speed 24 mph    
Max Gust Speed 33 mph    
Visibility 10 miles    
Events      
Averages and records for this station are not official NWS values.
T = Trace of Precipitation, MM = Missing Value Source: NWS Daily Summary

Daily Weather History Graph

Daily Weather History Graph

Search for Another Location

Airport or City:

Trip Planner

Search our weather history database for the weather conditions in past years. The results will help you decide how hot, cold, wet, or windy it might be!

Date:

Astronomy

Jan. 28, 2013 Rise Set
Actual Time 7:30 AM CST 5:50 PM CST
Civil Twilight 7:03 AM CST 6:17 PM CST
Nautical Twilight 6:32 AM CST 6:48 PM CST
Astronomical Twilight 6:02 AM CST 7:18 PM CST
Moon 7:41 PM CST 8:01 AM CST
Length of Visible Light 11h 14m
Length of Day
10h 20m
Full, 98% of the Moon is Illuminated
Jan 28
Full
Feb 3
Last Quarter
Feb 10
New
Feb 17
First Quarter
Feb 25
Full

Hourly Weather History & Observations

Time (CST) Temp. Dew Point Humidity Pressure Visibility Wind Dir Wind Speed Gust Speed Precip Events Conditions
12:15 AM 62.6 °F 60.8 °F 94% 29.88 in 10.0 mi South 10.4 mph - N/A   Overcast
12:35 AM 62.6 °F 60.8 °F 94% 29.88 in 10.0 mi South 10.4 mph - N/A   Overcast
12:55 AM 62.6 °F 60.8 °F 94% 29.88 in 10.0 mi South 11.5 mph - N/A   Overcast
1:15 AM 62.6 °F 60.8 °F 94% 29.88 in 10.0 mi South 11.5 mph - N/A   Overcast
1:35 AM 62.6 °F 62.6 °F 100% 29.88 in 10.0 mi South 9.2 mph - N/A   Mostly Cloudy
1:55 AM 62.6 °F 62.6 °F 100% 29.88 in 10.0 mi South 10.4 mph - N/A   Scattered Clouds
2:15 AM 62.6 °F 62.6 °F 100% 29.88 in 10.0 mi South 11.5 mph - N/A   Mostly Cloudy
2:35 AM 64.4 °F 62.6 °F 94% 29.88 in 10.0 mi South 12.7 mph 18.4 mph N/A   Overcast
2:55 AM 64.4 °F 62.6 °F 94% 29.88 in 10.0 mi South 16.1 mph 21.9 mph N/A   Overcast
3:15 AM 64.4 °F 62.6 °F 94% 29.88 in 10.0 mi South 12.7 mph 21.9 mph N/A   Mostly Cloudy
3:35 AM 64.4 °F 64.4 °F 100% 29.88 in 10.0 mi South 12.7 mph - N/A   Scattered Clouds
3:55 AM 64.4 °F 64.4 °F 100% 29.89 in 10.0 mi South 15.0 mph 18.4 mph N/A   Clear
4:15 AM 64.4 °F 64.4 °F 100% 29.89 in 10.0 mi South 15.0 mph 20.7 mph N/A   Clear
4:35 AM 64.4 °F 64.4 °F 100% 29.89 in 10.0 mi SSW 15.0 mph 23.0 mph N/A   Clear
4:55 AM 64.4 °F 64.4 °F 100% 29.88 in 10.0 mi SSW 13.8 mph 20.7 mph N/A   Clear
5:15 AM 64.4 °F 64.4 °F 100% 29.88 in 10.0 mi SSW 16.1 mph 20.7 mph N/A   Clear
5:35 AM 64.4 °F 64.4 °F 100% 29.88 in 10.0 mi SSW 17.3 mph 21.9 mph N/A   Clear
5:55 AM 64.4 °F 64.4 °F 100% 29.89 in 10.0 mi SSW 17.3 mph 23.0 mph N/A   Clear
6:15 AM 64.4 °F 64.4 °F 100% 29.89 in 10.0 mi SSW 16.1 mph - N/A   Clear
6:35 AM 64.4 °F 64.4 °F 100% 29.90 in 10.0 mi SSW 15.0 mph 21.9 mph N/A   Clear
6:55 AM 64.4 °F 64.4 °F 100% 29.90 in 10.0 mi SSW 13.8 mph 20.7 mph N/A   Scattered Clouds
7:15 AM 66.2 °F 66.2 °F 100% 29.91 in 10.0 mi SSW 12.7 mph 20.7 mph N/A   Mostly Cloudy
7:35 AM 66.2 °F 66.2 °F 100% 29.91 in 10.0 mi SSW 11.5 mph 21.9 mph N/A   Overcast
7:55 AM 68.0 °F 64.4 °F 88% 29.92 in 10.0 mi SSW 13.8 mph 20.7 mph N/A   Overcast
8:15 AM 68.0 °F 64.4 °F 88% 29.92 in 10.0 mi SSW 12.7 mph 19.6 mph N/A   Overcast
8:35 AM 68.0 °F 64.4 °F 88% 29.92 in 10.0 mi South 13.8 mph 19.6 mph N/A   Overcast
8:55 AM 68.0 °F 64.4 °F 88% 29.92 in 10.0 mi South 13.8 mph 23.0 mph N/A   Overcast
9:15 AM 68.0 °F 66.2 °F 94% 29.93 in 10.0 mi SSW 18.4 mph 24.2 mph N/A   Overcast
9:35 AM 69.8 °F 64.4 °F 83% 29.93 in 10.0 mi SSW 17.3 mph 24.2 mph N/A   Overcast
9:55 AM 69.8 °F 66.2 °F 88% 29.93 in 10.0 mi SSW 15.0 mph 27.6 mph N/A   Overcast
10:15 AM 69.8 °F 66.2 °F 88% 29.93 in 10.0 mi SSW 21.9 mph 27.6 mph N/A   Overcast
10:35 AM 69.8 °F 66.2 °F 88% 29.93 in 10.0 mi SSW 18.4 mph 31.1 mph N/A   Overcast
10:55 AM 71.6 °F 66.2 °F 83% 29.93 in 10.0 mi SSW 20.7 mph 31.1 mph N/A   Overcast
11:15 AM 73.4 °F 66.2 °F 78% 29.92 in 10.0 mi SSW 17.3 mph 26.5 mph N/A   Overcast
11:35 AM 73.4 °F 66.2 °F 78% 29.91 in 10.0 mi SSW 23.0 mph 33.4 mph N/A   Overcast
11:55 AM 75.2 °F 66.2 °F 73% 29.90 in 10.0 mi SSW 24.2 mph 32.2 mph N/A   Mostly Cloudy
12:15 PM 73.4 °F 64.4 °F 73% 29.89 in 10.0 mi SSW 18.4 mph 28.8 mph N/A   Mostly Cloudy
12:35 PM 75.2 °F 64.4 °F 69% 29.87 in 10.0 mi SSW 19.6 mph 29.9 mph N/A   Overcast
12:55 PM 77.0 °F 64.4 °F 65% 29.86 in 10.0 mi SSW 18.4 mph 28.8 mph N/A   Overcast
1:15 PM 77.0 °F 64.4 °F 65% 29.85 in 10.0 mi SSW 21.9 mph 29.9 mph N/A   Mostly Cloudy
1:35 PM 77.0 °F 64.4 °F 65% 29.83 in 10.0 mi South 18.4 mph 26.5 mph N/A   Mostly Cloudy
1:55 PM 77.0 °F 64.4 °F 65% 29.82 in 10.0 mi SSW 18.4 mph 31.1 mph N/A   Overcast
2:15 PM 78.8 °F 64.4 °F 61% 29.82 in 10.0 mi SSW 18.4 mph 25.3 mph N/A   Overcast
2:35 PM 77.0 °F 64.4 °F 65% 29.81 in 10.0 mi SSW 23.0 mph 29.9 mph N/A   Overcast
2:55 PM 77.0 °F 64.4 °F 65% 29.81 in 10.0 mi South 19.6 mph 28.8 mph N/A   Overcast
3:15 PM 77.0 °F 64.4 °F 65% 29.80 in 10.0 mi South 20.7 mph 26.5 mph N/A   Overcast
3:35 PM 77.0 °F 64.4 °F 65% 29.80 in 10.0 mi South 15.0 mph 28.8 mph N/A   Overcast
3:55 PM 77.0 °F 64.4 °F 65% 29.80 in 10.0 mi South 16.1 mph 24.2 mph N/A   Mostly Cloudy
4:15 PM 75.2 °F 64.4 °F 69% 29.79 in 10.0 mi South 16.1 mph 23.0 mph N/A   Overcast
4:35 PM 75.2 °F 64.4 °F 69% 29.78 in 10.0 mi South 15.0 mph 24.2 mph N/A   Overcast
4:55 PM 75.2 °F 64.4 °F 69% 29.79 in 10.0 mi South 15.0 mph 25.3 mph N/A   Overcast
5:15 PM 73.4 °F 64.4 °F 73% 29.78 in 10.0 mi South 16.1 mph 20.7 mph N/A   Overcast
5:35 PM 73.4 °F 64.4 °F 73% 29.78 in 10.0 mi South 13.8 mph 24.2 mph N/A   Scattered Clouds
5:55 PM 71.6 °F 64.4 °F 78% 29.78 in 10.0 mi SSE 13.8 mph 17.3 mph N/A   Clear
6:15 PM 71.6 °F 64.4 °F 78% 29.77 in 10.0 mi South 13.8 mph 19.6 mph N/A   Clear
6:35 PM 71.6 °F 64.4 °F 78% 29.77 in 10.0 mi SSE 13.8 mph 20.7 mph N/A   Clear
6:55 PM 71.6 °F 66.2 °F 83% 29.77 in 10.0 mi SSE 15.0 mph 19.6 mph N/A   Clear
7:15 PM 69.8 °F 66.2 °F 88% 29.77 in 10.0 mi SSE 13.8 mph 20.7 mph N/A   Scattered Clouds
7:35 PM 69.8 °F 66.2 °F 88% 29.77 in 10.0 mi South 13.8 mph 24.2 mph N/A   Scattered Clouds
7:55 PM 69.8 °F 66.2 °F 88% 29.77 in 10.0 mi South 15.0 mph 19.6 mph N/A   Clear
8:15 PM 69.8 °F 66.2 °F 88% 29.77 in 10.0 mi South 13.8 mph 21.9 mph N/A   Clear
8:35 PM 69.8 °F 66.2 °F 88% 29.77 in 10.0 mi South 12.7 mph 19.6 mph N/A   Scattered Clouds
8:55 PM 69.8 °F 66.2 °F 88% 29.77 in 10.0 mi South 15.0 mph 23.0 mph N/A   Scattered Clouds
9:15 PM 69.8 °F 66.2 °F 88% 29.77 in 10.0 mi South 16.1 mph 21.9 mph N/A   Mostly Cloudy
9:35 PM 69.8 °F 66.2 °F 88% 29.77 in 10.0 mi South 15.0 mph 24.2 mph N/A   Scattered Clouds
9:55 PM 69.8 °F 66.2 °F 88% 29.76 in 10.0 mi South 11.5 mph 20.7 mph N/A   Scattered Clouds
10:15 PM 69.8 °F 66.2 °F 88% 29.76 in 10.0 mi South 16.1 mph 19.6 mph N/A   Mostly Cloudy
10:35 PM 69.8 °F 66.2 °F 88% 29.76 in 10.0 mi South 13.8 mph 20.7 mph N/A   Overcast
10:55 PM 71.6 °F 66.2 °F 83% 29.76 in 10.0 mi South 13.8 mph 21.9 mph N/A   Overcast
11:15 PM 69.8 °F 66.2 °F 88% 29.76 in 10.0 mi South 12.7 mph 19.6 mph N/A   Overcast
11:35 PM 69.8 °F 64.4 °F 83% 29.75 in 10.0 mi South 13.8 mph 25.3 mph N/A   Mostly Cloudy
11:55 PM 71.6 °F 64.4 °F 78% 29.74 in 10.0 mi South 16.1 mph 27.6 mph N/A   Clear